This is the latest recevied weather packets stored in our database for station/object HS5GDX-4. If no packets are shown the sender has not sent any weather packets the latest 10 day(s).
| Time | Temp. | Humidity | Pressure | Rain* | Wind** | Luminosity | Snow |
|---|---|---|---|---|---|---|---|
| 1788678609 | 29.44° C | 63% | 965 hPa | - | - | 0 W/m² | - |
| 1788677685 | 29.44° C | 66% | 965 hPa | - | - | 0 W/m² | - |
| 1788676760 | 30.56° C | 64% | 965 hPa | - | - | 0 W/m² | - |
| 1788675836 | 31.11° C | 62% | 965 hPa | - | - | 0 W/m² | - |
| 1788673062 | 31.11° C | 70% | 966 hPa | - | - | 0 W/m² | - |
| 1788672138 | 30.56° C | 71% | 967 hPa | - | - | 0 W/m² | - |
| 1788672075 | 30.56° C | 71% | 967 hPa | - | - | 0 W/m² | - |
| 1788671151 | 30.56° C | 71% | 967 hPa | - | - | 0 W/m² | - |
| 1788670226 | 30.56° C | 71% | 967 hPa | - | - | 0 W/m² | - |
| 1788669302 | 30.56° C | 71% | 968 hPa | - | - | 0 W/m² | - |
| 1788668377 | 30.56° C | 69% | 968 hPa | - | - | 0 W/m² | - |
| 1788667453 | 30° C | 71% | 968 hPa | - | - | 0 W/m² | - |
| 1788666528 | 30° C | 73% | 968 hPa | - | - | 0 W/m² | - |
| 1788665605 | 29.44° C | 72% | 968 hPa | - | - | 0 W/m² | - |
| 1788664680 | 29.44° C | 73% | 968 hPa | - | - | 0 W/m² | - |
| 1788663755 | 28.89° C | 73% | 968 hPa | - | - | 0 W/m² | - |
| 1788662831 | 28.89° C | 76% | 969 hPa | - | - | 0 W/m² | - |
| 1788661906 | 28.89° C | 74% | 969 hPa | - | - | 0 W/m² | - |
| 1788660982 | 28.89° C | 75% | 969 hPa | - | - | 0 W/m² | - |
| 1788656359 | 28.89° C | 72% | 968 hPa | - | - | 0 W/m² | - |
| 1788655435 | 27.78° C | 76% | 968 hPa | - | - | 0 W/m² | - |
| 1788654510 | 27.78° C | 76% | 968 hPa | - | - | 0 W/m² | - |
| 1788653586 | 27.78° C | 75% | 967 hPa | - | - | 0 W/m² | - |
| 1788652661 | 27.78° C | 75% | 967 hPa | - | - | 0 W/m² | - |
| 1788648964 | 27.22° C | 76% | 967 hPa | - | - | 0 W/m² | - |
* Rain since midnight (hover to see other rain measurements)
** Current wind speed in m/s (hover to see current wind gust speed)